Regional Weather Roundup
Issued by NWS Charleston, SC

Current Version | Previous Version | Graphics & Text | Print | Product List | Glossary On
Versions: 1 2 3 4 5 6 7 8 9 10 11 12 13 14 15 16 17 18 19 20 21 22 23 24 25 26 27 28 29 30 31 32 33 34 35 36 37 38 39 40 41 42 43 44 45 46 47 48 49 50
000 ASUS42 KCHS 220427 RWRCHS REGIONAL WEATHER ROUNDUP NATIONAL WEATHER SERVICE CHARLESTON SC 1200 AM EDT FRI MAY 22 2015 NOTE: "FAIR" INDICATES FEW OR NO CLOUDS BELOW 12,000 FEET WITH NO SIGNIFICANT WEATHER AND/OR OBSTRUCTIONS TO VISIBILITY. NOT ALL STATIONS ARE QUALITY CONTROLLED BY THE NATIONAL WEATHER SERVICE. USE DATA WITH CAUTION...ESPECIALLY DEWPOINT OBSERVATIONS. SCZ027-030-031-034>040-042>050-220500- ...SOUTHEAST SOUTH CAROLINA... CITY SKY/WX TMP DP RH WIND PRES REMARKS N CHARLESTON CLEAR 77 60 55 NW7 29.91R WATERFRONT PAR N/A 81 62 52 W6 29.88R MOUNT PLEASANT LGT RAIN 75 64 69 NW5 29.92R JOHNS ISLAND CLEAR 73 66 78 CALM 29.92R PINOPOLIS N/A 81 64 57 NW8 29.83R MONCKS CORNER FAIR 70 61 73 CALM 29.93R SUMMERVILLE FAIR 72 63 73 NW3 29.93R BEAUFORT MCAS CLEAR 78 62 57 W9 29.93R BEAUFORT ARPT FAIR 81 64 57 W8 29.93R HILTON HEAD IS CLEAR 81 64 57 W7 29.95R WALTERBORO CLEAR 70 61 73 W6 29.94R ALLENDALE FAIR 77 59 53 VRB5 29.94S ...SOUTHERN MIDLANDS AND PEE DEE... CITY SKY/WX TMP DP RH WIND PRES REMARKS GEORGETOWN NOT AVBL KINGSTREE NOT AVBL ORANGEBURG CLEAR 74 58 57 NW8 29.94R BARNWELL FAIR 75 59 57 W9 29.96R AIKEN FAIR 68 52 56 W10G17 30.02R MANNING FAIR 73 -17 2 NW6 29.93R COLUMBIA CLEAR 74 56 53 W15 29.95R SUMTER CLEAR 75 58 55 W7 29.90R FLORENCE CLEAR 69 64 84 E9 29.94R MYRTLE BEACH PTCLDY 72 63 73 NE8 29.95R N MYRTLE BEACH CLEAR 68 64 87 NE6 29.94R $$ GAZ063-065-086>088-099>101-113>116-118-119-134>141-150-220500- ...SOUTHEAST GEORGIA... CITY SKY/WX TMP DP RH WIND PRES REMARKS SAVANNAH ARPT CLEAR 77 61 57 W8 29.95R HUNTER AAF CLEAR 78 64 61 W9 29.93R FORT STEWART CLEAR 78 63 58 W7 29.95R STATESBORO CLEAR 75 65 71 NW9 29.97R SYLVANIA CLEAR 76 64 65 NW12 29.97R CLAXTON FAIR 75 64 69 W8 29.98R ...CSRA...CENTRAL AND FAR SOUTHEAST GEORGIA... CITY SKY/WX TMP DP RH WIND PRES REMARKS THOMSON CLEAR 68 58 70 W12 30.06S AUGUSTA-BUSH CLEAR 72 57 59 NW13 29.97R AUGUSTA-DANIEL CLEAR 72 54 53 NW13G18 29.99R SWAINSBORO FAIR 73 63 68 NW7 30.00S VIDALIA CLEAR 73 63 68 W3 30.00S EASTMAN FAIR 72 63 74 NW6 30.05R HAZLEHURST FAIR 75 63 65 NW5 30.00R ALMA CLEAR 76 62 62 NW7 30.00R WAYCROSS CLEAR 76 64 66 NW8 30.01R JESUP FAIR 79 68 69 NW9 29.98S BAXLEY FAIR 77 63 61 NW8 30.00R BRUNSWICK CLEAR 77 63 61 W7 29.98R SAINT SIMONS NOT AVBL $$ SCZ027-028-034-036>038-045-046-048>050-GAZ119-141-220500- ...LAKE AND SUPPLEMENTAL COASTAL OBSERVATIONS... STATION/POSITION TIME TEMP WIND PRES WAVE SWELL AIR SEA DIR/SP/G HT/PER HT/PER/DIR (UTC) (F) (DEG/KT/KT) (MB) (FT/S) (FT/S/D) UPR LAKE MARION NOT AVBL WINYAH BAY 0345 76 50/ 5 1012.0R LAKE MURRAY 0300 76 280/ 12/ 16 1012.9R ACE BASIN NERRS NOT AVBL FORT PULASKI 0400 80 78 290/ 10/ 13 1014.4R SAPELO ISLAND 0400 79 280/ 7 1015.0R $$ ANZ835-935-AMZ111-154-330-350-352-354-370-450-454-472-220500- ...C-MAN AND BUOY OBSERVATIONS... STATION/POSITION TIME TEMP WIND PRES WAVE SWELL AIR SEA DIR/SP/G HT/PER HT/PER/DIR (UTC) (F) (DEG/KT/KT) (MB) (FT/S) (FT/S/D) BUOY 41004 0350 77 76 240/ 14/ 16 1011.6R 3/ 5 2/ 9 BUOY 41008 0350 81 78 270/ 12/ 12 1013.9R 1/ 4 FOLLY BEACH CMAN 0400 78 290/ 6/ 8 1013.0R CAPERS NEARSHORE 0308 78 250/ 8/ 12 1012.3R FRIPP NEARSHORE 0300 79 270/ 6/ 8 1012.6 STATION/POSITION TIME TEMP WIND PRES WAVE SWELL AIR SEA DIR/SP/G HT/PER HT/PER/DIR (UTC) (F) (DEG/KT/KT) (MB) (FT/S) (FT/S/D) 5E ST. MARYS GA 0321 79 N/A 1/11 FRYING PAN BUOY 0350 74 75 30/ 12/ 14 1012.9R 4/ 6 2/130/ 8 BUOY 41025 0350 67 76 330/ 25/ 31 1010.7R 5/ 5 2/ 70/ 9 CAPE LOOKOUT NC 0400 63 350/ 16/ 19 1011.8R BUOY 41002 0350 76 75 230/ 16/ 17 1013.6F 5/ 6 2/110/ 9 BUOY 41010 0320 80 79 200/ 10/ 12 1015.9R ST AUGUSTINE FL 0400 79 74 260/ 7/ 9 1016.0R $$

USA.gov is the U.S. government's official web portal to all federal, state and local government web resources and services.